Overview Statistics Trail Chart Weather Telemetry Raw packets
 

This is the latest recevied weather packets stored in our database for station/object DL4SAV. If no packets are shown the sender has not sent any weather packets the latest 10 day(s).

<< 4 5 6 7 8 9 10 >>
Time Temp. Humidity Pressure Rain* Wind** Luminosity Snow
1788569302 19.44° C 66% 1018.3 hPa 0 mm - - -
1788569002 20° C 66% 1018.2 hPa 0 mm - - -
1788568702 20° C 65% 1018.2 hPa 0 mm - - -
1788568402 20° C 65% 1017.9 hPa 0 mm - - -
1788568101 20.56° C 64% 1018 hPa 0 mm - - -
1788567801 20.56° C 64% 1018 hPa 0 mm - - -
1788567501 21.11° C 63% 1017.9 hPa 0 mm - - -
1788567200 21.11° C 63% 1017.8 hPa 0 mm - - -
1788566900 21.11° C 63% 1017.9 hPa 0 mm - - -
1788566600 21.11° C 63% 1017.7 hPa 0 mm - - -
1788566300 21.67° C 62% 1017.8 hPa 0 mm - - -
1788565999 21.67° C 62% 1017.7 hPa 0 mm - - -
1788565699 21.67° C 61% 1017.7 hPa 0 mm - - -
1788565399 21.67° C 61% 1017.8 hPa 0 mm - - -
1788565098 21.67° C 60% 1017.8 hPa 0 mm - - -
1788564798 21.67° C 59% 1017.8 hPa 0 mm - - -
1788564498 21.67° C 59% 1017.8 hPa 0 mm - - -
1788564198 21.67° C 59% 1017.8 hPa 0 mm - - -
1788563897 22.22° C 59% 1017.8 hPa 0 mm - - -
1788563597 21.67° C 59% 1017.8 hPa 0 mm - - -
1788563297 22.22° C 59% 1017.7 hPa 0 mm - - -
1788562997 22.22° C 59% 1017.5 hPa 0 mm - - -
1788562696 22.22° C 59% 1017.4 hPa 0 mm - - -
1788562396 22.22° C 59% 1017.3 hPa 0 mm - - -
1788562123 22.22° C 59% 1017.4 hPa 0 mm - - -

* Rain latest hour (hover to see other rain measurements)
** Current wind speed in m/s (hover to see current wind gust speed)